Location: Avully
(45.9633°N, 6.0228°E)
Time: 19:33:21
(UTC+00:00)

COSMOS 2406 - Pass Details

Date: 23 May 2024
Orbit: 844 x 862 km, 71.0° (Epoch: 16 June)

Event Time Altitude Azimuth Distance (km) Brightness Sun altitude
Exits shadow 01:19:31 27° 243° (WSW) 1,587 4.2 -19.1°
Maximum altitude 01:22:20 49° 303° (WNW) 1,105 3.8 -18.9°
Drops below altitude 10° 01:27:55 10° 18° (NNE) 2,508 6.9 -18.5°
Sets 01:30:29 0° 24° (NNE) 3,447 8.1 -18.2°
